Location: Unspecified
(0.0000°N, 0.0000°E)
Time: 23:48:20
(UTC+00:00)

Tiangong - Pass Details

Date: 28 April 2025
Orbit: 377 x 386 km, 41.5° (Epoch: 16 May)

Event Time Altitude Azimuth Distance (km) Brightness Sun altitude
Rises 19:27:16 0° 296° (WNW) 2,223 3.2 -21.7°
Reaches altitude 10° 19:29:31 10° 283° (WNW) 1,376 1.8 -22.3°
Enters shadow 19:31:58 26° 231° (SW) 790 -0.3 -22.8°
